GW6311 Weather Reports


Display with metric or nautical units.
time (UTC)temp
F
wind
direction
speed
MPH
gust
MPH
rain 1hr
in
rain 24hr
in
rain mn
in
humidity
%
barometer
mb
20260506211326 82 268 0.0 0.0 0.00 0.00 0.00 70 1011.6
20260506210824 83 268 0.0 0.0 0.00 0.00 0.00 70 1011.6
20260506210320 82 270 0.0 0.0 0.00 0.00 0.00 72 1011.7
20260506205817 80 269 0.0 0.0 0.00 0.00 0.00 75 1011.9
20260506205314 79 268 0.0 0.0 0.00 0.00 0.00 77 1011.9
20260506204810 79 267 0.0 0.0 0.00 0.00 0.00 77 1012.0
20260506204308 79 260 1.0 2.0 0.00 0.00 0.00 77 1012.0
20260506203806 80 269 0.0 0.0 0.00 0.00 0.00 76 1011.6
20260506203303 80 277 0.0 0.0 0.00 0.00 0.00 76 1011.7
20260506202759 80 269 0.0 0.0 0.00 0.00 0.00 78 1011.9
20260506202256 81 259 0.0 0.0 0.00 0.00 0.00 76 1011.7
20260506201753 81 252 0.0 0.0 0.00 0.00 0.00 76 1011.6
20260506201249 81 242 0.0 0.0 0.00 0.00 0.00 77 1012.1
20260506200747 82 242 0.0 0.0 0.00 0.00 0.00 78 1012.0
20260506200243 82 242 0.0 0.0 0.00 0.00 0.00 78 1011.9
20260506195739 82 242 0.0 0.0 0.00 0.00 0.00 76 1012.1
20260506195236 82 242 0.0 0.0 0.00 0.00 0.00 75 1012.0
20260506194733 82 242 0.0 0.0 0.00 0.00 0.00 76 1012.3
20260506194230 82 235 0.0 0.0 0.00 0.00 0.00 76 1012.2
20260506193728 82 235 0.0 0.0 0.00 0.00 0.00 77 1012.1
20260506193224 82 234 0.0 2.0 0.00 0.00 0.00 76 1012.2
20260506192721 82 220 0.0 0.0 0.00 0.00 0.00 78 1012.2
20260506192218 82 228 2.0 4.0 0.00 0.00 0.00 76 1012.1
20260506191714 82 250 0.0 2.0 0.00 0.00 0.00 78 1012.0
20260506191210 81 248 0.0 0.0 0.00 0.00 0.00 79 1012.0
20260506190708 80 253 0.0 0.0 0.00 0.00 0.00 80 1012.2
20260506190204 80 241 1.0 2.0 0.00 0.00 0.00 80 1012.2
20260506185702 80 215 0.0 2.0 0.00 0.00 0.00 79 1012.4
20260506185158 80 251 0.0 4.0 0.00 0.00 0.00 79 1012.4
20260506184656 80 249 0.0 0.0 0.00 0.00 0.00 81 1012.3
20260506184153 80 246 0.0 0.0 0.00 0.00 0.00 80 1012.6
20260506183649 80 235 0.0 2.0 0.00 0.00 0.00 80 1012.5
20260506183145 80 246 0.0 2.0 0.00 0.00 0.00 81 1012.3
20260506182643 80 251 0.0 0.0 0.00 0.00 0.00 82 1012.7
20260506182139 81 246 0.0 2.0 0.00 0.00 0.00 79 1012.7
20260506181637 82 268 0.0 0.0 0.00 0.00 0.00 79 1012.8
20260506181134 82 270 0.0 0.0 0.00 0.00 0.00 78 1012.8
20260506180631 80 258 0.0 2.0 0.00 0.00 0.00 81 1012.8
20260506180128 80 235 0.0 6.0 0.00 0.00 0.00 80 1012.7
20260506175624 82 246 0.0 4.0 0.00 0.00 0.00 78 1012.7
20260506175120 80 247 0.0 0.0 0.00 0.00 0.00 83 1012.6
20260506174619 79 140 2.0 4.0 0.00 0.00 0.00 82 1012.8
20260506174115 78 246 1.0 2.0 0.00 0.00 0.00 85 1012.8
20260506173613 77 188 2.0 4.0 0.00 0.00 0.00 86 1012.9
20260506173109 77 268 0.0 0.0 0.00 0.00 0.00 89 1012.9
20260506172607 76 208 0.0 2.0 0.00 0.00 0.00 88 1013.0
20260506172103 76 248 0.0 0.0 0.00 0.00 0.00 88 1013.0
20260506171601 77 198 2.0 4.0 0.00 0.00 0.00 87 1013.0
20260506171058 77 227 0.0 2.0 0.00 0.00 0.00 86 1013.1
20260506170555 77 250 0.0 0.0 0.00 0.00 0.00 88 1013.0
20260506170053 77 141 2.0 4.0 0.00 0.00 0.00 87 1012.9
20260506165551 77 70 4.0 6.0 0.00 0.00 0.00 86 1012.7
20260506165047 77 226 0.0 4.0 0.00 0.00 0.00 86 1013.0
20260506164544 78 222 2.0 4.0 0.00 0.00 0.00 85 1012.9
20260506164042 78 241 1.0 2.0 0.00 0.00 0.00 86 1013.0
20260506163537 78 127 3.0 4.0 0.00 0.00 0.00 85 1012.8
20260506163033 77 221 2.0 4.0 0.00 0.00 0.00 85 1013.0
20260506162524 78 232 0.0 2.0 0.00 0.00 0.00 86 1012.8
20260506162021 78 224 0.0 4.0 0.00 0.00 0.00 85 1012.9
20260506161518 78 238 0.0 0.0 0.00 0.00 0.00 86 1012.9
20260506161015 78 151 3.0 4.0 0.00 0.00 0.00 86 1012.7
20260506160514 78 235 1.0 2.0 0.00 0.00 0.00 87 1012.6
20260506160011 77 254 0.0 2.0 0.00 0.00 0.00 88 1012.6
20260506155509 77 223 2.0 4.0 0.00 0.00 0.00 89 1012.6
20260506153640 76 235 0.0 2.0 0.00 0.00 0.00 90 1012.4
20260506153137 76 241 0.0 2.0 0.00 0.00 0.00 91 1012.5
20260506152634 75 244 0.0 0.0 0.00 0.00 0.00 92 1012.4
20260506152131 75 238 0.0 0.0 0.00 0.00 0.00 93 1012.3
20260506151630 75 241 0.0 0.0 0.00 0.00 0.00 94 1012.3
20260506151126 75 241 0.0 0.0 0.00 0.00 0.00 94 1012.5
20260506150623 74 241 0.0 0.0 0.00 0.00 0.00 95 1012.2
20260506150120 74 241 0.0 0.0 0.00 0.00 0.00 95 1012.1
20260506145617 74 243 0.0 2.0 0.00 0.00 0.00 95 1012.0
20260506145114 74 242 0.0 0.0 0.00 0.00 0.00 96 1012.0
20260506144611 74 243 0.0 0.0 0.00 0.00 0.00 96 1011.9
20260506144108 73 232 0.0 0.0 0.00 0.00 0.00 96 1012.0
20260506143606 74 248 0.0 0.0 0.00 0.00 0.00 96 1012.2
20260506143103 73 247 0.0 0.0 0.00 0.00 0.00 96 1012.2
20260506142601 73 249 0.0 0.0 0.00 0.00 0.00 97 1012.1
20260506142059 73 252 0.0 0.0 0.00 0.00 0.00 97 1012.2
20260506141556 73 253 0.0 0.0 0.00 0.00 0.00 97 1012.1
20260506141055 73 249 0.0 0.0 0.00 0.00 0.00 97 1011.7
20260506140552 73 244 0.0 0.0 0.00 0.00 0.00 98 1011.6
20260506140049 73 242 0.0 0.0 0.00 0.00 0.00 98 1011.4
20260506135546 73 244 0.0 0.0 0.00 0.00 0.00 98 1011.3
20260506135042 73 221 2.0 2.0 0.00 0.00 0.00 98 1011.0
20260506134539 73 205 1.0 2.0 0.00 0.00 0.00 98 1011.1
20260506134035 73 245 0.0 0.0 0.00 0.00 0.00 98 1011.0
20260506133532 73 237 0.0 0.0 0.00 0.00 0.00 98 1010.7
20260506133029 73 220 2.0 2.0 0.00 0.00 0.00 98 1010.5
20260506132526 73 245 0.0 2.0 0.00 0.00 0.00 98 1010.6
20260506132023 73 244 0.0 2.0 0.00 0.00 0.00 98 1010.5
20260506131520 73 247 0.0 4.0 0.00 0.00 0.00 98 1010.6
20260506131017 73 247 0.0 0.0 0.00 0.00 0.00 98 1010.7
20260506130514 72 235 1.0 4.0 0.00 0.00 0.00 98 1010.6
20260506130011 73 242 0.0 0.0 0.00 0.00 0.00 98 1010.5
20260506125509 72 242 0.0 4.0 0.00 0.00 0.00 98 1010.3
20260506125007 73 201 2.0 2.0 0.00 0.00 0.00 98 1010.2
20260506124504 72 239 1.0 2.0 0.00 0.00 0.00 98 1010.2
20260506124002 72 242 2.0 2.0 0.00 0.00 0.00 98 1010.1
20260506123500 72 235 2.0 2.0 0.00 0.00 0.00 98 1010.2
20260506122957 72 239 0.0 2.0 0.00 0.00 0.00 98 1010.2
20260506122454 72 233 0.0 0.0 0.00 0.00 0.00 98 1010.2
20260506121952 72 239 0.0 2.0 0.00 0.00 0.00 99 1010.3
20260506121449 72 242 0.0 2.0 0.00 0.00 0.00 99 1010.3
20260506120946 72 239 0.0 2.0 0.00 0.00 0.00 99 1010.3
20260506120443 72 238 0.0 2.0 0.00 0.00 0.00 99 1010.3
20260506115941 72 242 0.0 0.0 0.00 0.00 0.00 99 1010.3
20260506115439 72 240 0.0 0.0 0.00 0.00 0.00 99 1010.1
20260506114937 72 242 0.0 2.0 0.00 0.00 0.00 99 1010.3
20260506114434 72 237 0.0 0.0 0.00 0.00 0.00 99 1010.2
20260506113932 72 238 0.0 0.0 0.00 0.00 0.00 99 1010.2
20260506113430 72 238 0.0 0.0 0.00 0.00 0.00 99 1010.2
20260506112926 72 240 0.0 0.0 0.00 0.00 0.00 99 1010.3
20260506112424 72 241 0.0 0.0 0.00 0.00 0.00 99 1010.2
20260506111921 72 241 0.0 0.0 0.00 0.00 0.00 99 1010.1
20260506111419 72 240 0.0 0.0 0.00 0.00 0.00 99 1010.3
20260506110916 72 244 0.0 0.0 0.00 0.00 0.00 99 1010.3
20260506110414 72 245 0.0 0.0 0.00 0.00 0.00 99 1010.4
20260506105910 72 245 0.0 0.0 0.00 0.00 0.00 99 1010.3
20260506105406 72 245 0.0 0.0 0.00 0.00 0.00 99 1010.3
20260506104904 72 252 0.0 2.0 0.00 0.00 0.00 99 1010.4
20260506104401 72 250 0.0 4.0 0.00 0.00 0.00 99 1010.3
20260506103859 72 248 0.0 0.0 0.00 0.00 0.00 99 1010.3
20260506103356 72 253 0.0 2.0 0.00 0.00 0.00 99 1010.2
20260506102853 72 233 2.0 4.0 0.00 0.00 0.00 99 1010.0
20260506102351 72 240 0.0 0.0 0.00 0.00 0.00 99 1010.2
20260506101848 72 231 2.0 2.0 0.00 0.00 0.00 99 1010.2
20260506101344 72 249 0.0 2.0 0.00 0.00 0.00 99 1010.2
20260506100842 72 235 2.0 4.0 0.00 0.00 0.00 99 1010.4
20260506100340 72 238 0.0 2.0 0.00 0.00 0.00 99 1010.0
20260506095838 72 200 2.0 6.0 0.00 0.00 0.00 99 1010.2
20260506095335 72 185 3.0 4.0 0.00 0.00 0.00 99 1010.0
20260506094832 72 252 2.0 4.0 0.00 0.00 0.00 98 1010.2
20260506094331 72 221 1.0 4.0 0.00 0.00 0.00 98 1010.1
20260506093829 72 244 1.0 2.0 0.00 0.00 0.00 98 1010.0
20260506093326 72 249 1.0 6.0 0.00 0.00 0.00 98 1010.0
20260506092823 72 244 1.0 4.0 0.00 0.00 0.00 97 1010.0
20260506092321 72 247 3.0 6.0 0.00 0.00 0.00 97 1010.0
20260506091818 72 156 3.0 6.0 0.00 0.00 0.00 98 1010.0
20260506091315 72 234 3.0 4.0 0.00 0.00 0.00 98 1009.8
20260506090813 73 135 2.0 4.0 0.00 0.00 0.00 98 1009.8
20260506090310 73 235 2.0 6.0 0.00 0.00 0.00 97 1009.8
20260506085807 73 199 3.0 4.0 0.00 0.00 0.00 97 1009.8
20260506085305 73 244 2.0 4.0 0.00 0.00 0.00 97 1009.8
20260506084759 73 215 2.0 4.0 0.00 0.00 0.00 97 1009.9
20260506084256 73 154 4.0 6.0 0.00 0.00 0.00 97 1009.7
20260506083753 73 244 0.0 6.0 0.00 0.00 0.00 96 1009.8
20260506083251 73 238 2.0 4.0 0.00 0.00 0.00 96 1009.7
20260506082748 73 242 0.0 4.0 0.00 0.00 0.00 96 1009.7
20260506082243 73 234 2.0 4.0 0.00 0.00 0.00 96 1009.8
20260506081741 73 202 3.0 6.0 0.00 0.00 0.00 96 1009.7
20260506081238 73 239 4.0 6.0 0.00 0.00 0.00 96 1009.9
20260506080737 73 129 8.0 10.0 0.00 0.00 0.00 96 1010.0
20260506080232 73 223 2.0 4.0 0.00 0.00 0.00 96 1010.0
20260506073217 73 151 4.0 6.0 0.00 0.00 0.00 96 1010.2
20260506072713 73 195 4.0 8.0 0.00 0.00 0.00 96 1010.3
20260506072211 73 149 5.0 10.0 0.00 0.00 0.00 96 1010.2
20260506071708 74 237 1.0 4.0 0.00 0.00 0.00 96 1010.4
20260506071206 74 237 3.0 6.0 0.00 0.00 0.00 96 1010.4
20260506070703 73 236 3.0 4.0 0.00 0.00 0.00 96 1010.4
20260506070200 73 223 2.0 4.0 0.00 0.00 0.00 96 1010.5
20260506062137 74 226 2.0 4.0 0.00 0.00 0.00 95 1010.5
20260506061632 74 231 3.0 4.0 0.00 0.00 0.00 95 1010.4
20260506061131 74 232 2.0 6.0 0.00 0.00 0.00 95 1010.5
20260506060629 74 230 2.0 4.0 0.00 0.00 0.00 94 1010.5
20260506060125 74 227 2.0 4.0 0.00 0.00 0.00 94 1010.5
20260506051057 75 233 5.0 8.0 0.00 0.00 0.00 93 1010.3
20260506050555 75 239 2.0 6.0 0.00 0.00 0.00 93 1010.4
20260506045046 75 242 1.0 2.0 0.00 0.00 0.00 93 1010.4
20260506044544 75 237 0.0 6.0 0.00 0.00 0.00 93 1010.3
20260506044040 75 221 2.0 4.0 0.00 0.00 0.00 93 1010.3
20260506043537 75 236 3.0 4.0 0.00 0.00 0.00 93 1010.2
20260506043036 75 232 1.0 4.0 0.00 0.00 0.00 93 1010.2
20260506042534 76 217 2.0 4.0 0.00 0.00 0.00 93 1010.1
20260506042032 76 220 2.0 4.0 0.00 0.00 0.00 92 1010.0
20260506041531 76 212 3.0 6.0 0.00 0.00 0.00 92 1010.1
20260506041027 76 237 3.0 6.0 0.00 0.00 0.00 92 1010.2
20260506040525 76 224 2.0 4.0 0.00 0.00 0.00 92 1010.1
20260506040020 76 229 1.0 4.0 0.00 0.00 0.00 92 1010.2
20260506035518 76 176 3.0 4.0 0.00 0.00 0.00 92 1010.1
20260506035014 76 223 2.0 4.0 0.00 0.00 0.00 92 1010.1
20260506034512 76 209 4.0 6.0 0.00 0.00 0.00 92 1009.9
20260506034009 76 211 2.0 4.0 0.00 0.00 0.00 91 1010.0
20260506033506 76 231 0.0 4.0 0.00 0.00 0.00 91 1009.7
20260506033002 77 227 1.0 2.0 0.00 0.00 0.00 90 1009.6
20260506032500 77 236 2.0 4.0 0.00 0.00 0.00 90 1009.8
20260506031956 77 198 2.0 4.0 0.00 0.00 0.00 90 1009.7
20260506031454 77 214 0.0 2.0 0.00 0.00 0.00 89 1009.6
20260506030951 77 220 2.0 4.0 0.00 0.00 0.00 89 1009.6
20260506030449 77 214 2.0 2.0 0.00 0.00 0.00 88 1009.5
20260506025946 77 236 2.0 4.0 0.00 0.00 0.00 88 1009.1
20260506025443 77 229 2.0 4.0 0.00 0.00 0.00 87 1009.2
20260506024939 77 228 2.0 4.0 0.00 0.00 0.00 87 1009.0
20260506024436 77 234 2.0 4.0 0.00 0.00 0.00 87 1009.1
20260506023932 77 236 1.0 2.0 0.00 0.00 0.00 87 1008.9
20260506023429 77 236 1.0 2.0 0.00 0.00 0.00 87 1009.0
20260506022926 78 235 1.0 2.0 0.00 0.00 0.00 86 1008.8
20260506022424 78 229 0.0 2.0 0.00 0.00 0.00 86 1008.8
20260506021921 78 223 2.0 2.0 0.00 0.00 0.00 86 1008.6
20260506021418 78 227 2.0 2.0 0.00 0.00 0.00 85 1008.6
20260506020915 78 226 1.0 2.0 0.00 0.00 0.00 85 1008.7
20260506020413 78 229 1.0 2.0 0.00 0.00 0.00 85 1008.4
20260506015910 78 227 0.0 2.0 0.00 0.00 0.00 84 1008.6
20260506015408 78 225 2.0 2.0 0.00 0.00 0.00 84 1008.2
20260506014904 78 225 1.0 2.0 0.00 0.00 0.00 84 1008.5
20260506014401 78 225 0.0 0.0 0.00 0.00 0.00 84 1008.3
20260506013858 78 225 0.0 0.0 0.00 0.00 0.00 83 1008.0
20260506013356 78 225 0.0 0.0 0.00 0.00 0.00 83 1008.0
20260506012851 78 225 0.0 0.0 0.00 0.00 0.00 83 1007.9
20260506012348 79 225 0.0 0.0 0.00 0.00 0.00 82 1008.0
20260506011846 79 225 0.0 0.0 0.00 0.00 0.00 83 1007.9
20260506011342 79 225 0.0 0.0 0.00 0.00 0.00 82 1007.8
20260506010840 79 225 0.0 0.0 0.00 0.00 0.00 82 1007.9
20260506010338 80 225 0.0 0.0 0.00 0.00 0.00 81 1008.0
20260506005834 80 225 0.0 0.0 0.00 0.00 0.00 80 1007.7
20260506005331 81 225 0.0 0.0 0.00 0.00 0.00 79 1007.9
20260506004827 81 225 0.0 0.0 0.00 0.00 0.00 79 1007.9
20260506004325 81 225 0.0 0.0 0.00 0.00 0.00 78 1007.9
20260506003821 81 225 0.0 0.0 0.00 0.00 0.00 78 1007.9
20260506003317 81 225 0.0 0.0 0.00 0.00 0.00 77 1007.9
20260506002813 81 225 0.0 0.0 0.00 0.00 0.00 77 1008.1
20260506002310 81 225 0.0 0.0 0.00 0.00 0.00 76 1008.0
20260506001806 81 225 0.0 0.0 0.00 0.00 0.00 77 1008.0
20260506001303 82 225 0.0 0.0 0.00 0.00 0.00 76 1008.1
20260506000800 82 225 0.0 0.0 0.00 0.00 0.00 75 1008.0
20260506000258 82 225 0.0 0.0 0.00 0.00 0.00 76 1007.9
20260505235754 82 225 0.0 4.0 0.00 0.00 0.00 75 1007.9
20260505235252 82 230 0.0 2.0 0.00 0.00 0.00 75 1008.0
20260505234749 83 233 0.0 2.0 0.00 0.00 0.00 74 1007.8
20260505234246 83 252 0.0 0.0 0.00 0.00 0.00 74 1007.8
20260505233743 83 252 0.0 2.0 0.00 0.00 0.00 73 1007.8
20260505233241 84 253 2.0 6.0 0.00 0.00 0.00 72 1007.8
20260505232738 84 224 0.0 2.0 0.00 0.00 0.00 73 1007.6
20260505232235 83 232 2.0 4.0 0.00 0.00 0.00 73 1007.7
20260505231732 83 213 3.0 4.0 0.00 0.00 0.00 73 1007.8
20260505231231 83 237 2.0 2.0 0.00 0.00 0.00 74 1007.9
20260505230728 82 219 2.0 2.0 0.00 0.00 0.00 74 1007.8
20260505230225 83 254 1.0 2.0 0.00 0.00 0.00 73 1007.8
20260505225722 82 241 1.0 2.0 0.00 0.00 0.00 75 1007.9
20260505225219 82 253 0.0 6.0 0.00 0.00 0.00 74 1007.7
20260505224714 82 153 2.0 6.0 0.00 0.00 0.00 75 1007.7
20260505224212 82 221 2.0 4.0 0.00 0.00 0.00 74 1007.7
20260505223709 83 156 4.0 6.0 0.00 0.00 0.00 73 1007.8
20260505223205 83 232 2.0 2.0 0.00 0.00 0.00 74 1007.9
20260505222701 83 182 6.0 8.0 0.00 0.00 0.00 73 1007.7
20260505222157 83 208 2.0 12.0 0.00 0.00 0.00 73 1007.7
20260505221655 84 189 6.0 8.0 0.00 0.00 0.00 72 1007.7
20260505221151 84 233 1.0 4.0 0.00 0.00 0.00 71 1007.9
20260505220648 84 238 9.0 14.0 0.00 0.00 0.00 70 1007.8
20260505220146 83 246 2.0 8.0 0.00 0.00 0.00 73 1007.6
20260505215643 84 264 5.0 8.0 0.00 0.00 0.00 71 1007.7
20260505215141 85 253 2.0 6.0 0.00 0.00 0.00 70 1007.7
20260505214639 84 233 3.0 10.0 0.00 0.00 0.00 70 1007.5
20260505214136 83 255 1.0 4.0 0.00 0.00 0.00 72 1007.7
20260505213634 82 231 0.0 6.0 0.00 0.00 0.00 74 1007.7
20260505213130 82 242 1.0 4.0 0.00 0.00 0.00 75 1007.9
20260505212626 82 222 3.0 8.0 0.00 0.00 0.00 74 1008.0
20260505212124 82 203 5.0 6.0 0.00 0.00 0.00 73 1008.3
20260505211621 84 120 3.0 6.0 0.00 0.00 0.00 72 1008.4